Location: Unspecified
(51.0950°N, 12.9690°E)
Time: 22:49:47
(UTC+00:00)

USA 215 - Pass Details

Date: 28 October 2021
Orbit: 1099 x 1109 km, 123.0° (Epoch: 20 November)

Event Time Altitude Azimuth Distance (km) Brightness Sun altitude
Exits shadow 17:58:15 28° 58° (ENE) 1,958 4.1 -20.8°
Maximum altitude 18:02:04 82° 334° (NNW) 1,117 3.2 -21.4°
Drops below altitude 10° 18:08:37 10° 248° (WSW) 2,961 6.4 -22.4°
Sets 18:11:06 0° 247° (WSW) 3,919 7.1 -22.8°
